Location: Asheville, NC
(35.6000°N, 82.5500°W)
Time: 10:40:31

KKS-1 - Pass Details

Date: 15 March 2018
Orbit: 638 x 650 km, 98.4° (Epoch: 21 March)

Event Time Altitude Azimuth Distance (km) Brightness Sun altitude
Rises 20:18:58 0° 351° (N) 2,960 ? -9.2°
Reaches altitude 10° 20:22:00 10° 329° (NNW) 2,043 ? -9.8°
Maximum altitude 20:24:32 15° 294° (WNW) 1,715 ? -10.3°
Drops below altitude 10° 20:27:04 10° 259° (W) 2,031 ? -10.8°
Sets 20:30:05 0° 236° (WSW) 2,933 ? -11.4°
